Location: Bratislava
(48.1500°N, 17.1170°E)
Time: 18:58:33
(UTC+02:00)

N. Korean satellite - Visible Passes

Search period start: 24 September 2018 00:00
Search period end: 04 October 2018 00:00
Orbit: 458 x 511 km, 97.2° (Epoch: 23 September)

Date Brightness Start Highest point End Pass type
(mag) Time Alt. Az. Time Alt. Az. Time Alt. Az.
26 Sep 10.8 06:02:55 10° ENE 06:03:34 10° E 06:04:14 10° E visible
27 Sep 9.9 19:23:19 10° SW 19:25:45 17° W 19:28:12 10° NW visible
30 Sep 10.6 19:45:42 10° W 19:46:19 10° W 19:46:56 10° WNW visible
01 Oct 9.8 19:19:03 10° SW 19:21:41 19° W 19:24:23 10° NW visible
03 Oct 10.2 06:17:45 10° NE 06:20:08 16° E 06:22:28 10° SE visible
